KINDAKUN POINT, BC current weather conditions

sailwx.info

Wind from 010 at 19 knots

Air temperature 7.0° C
Dewpoint 4.0° C

Last reported at 2015-Jan-27 01:00 UTC.
Time now 2015-Jan-27 03:23 UTC

Location: N 53°19' W 132°46'.
View on Google Maps.

See reports from other nearby stations

  
Tides and Currents Weather Stations Pressure Air Temp Water Temp Dewpoint Dewpoint Depression Visibility Wind Speed Wind Dir Waves Ship Positions
date/time (UTC)wind fromknots sea level pressurealtimeterstation pressurevisibilityair tempwater tempwave heightnotes
2015-Jan-27 02:00 030 15 gusting 22 7.0
2015-Jan-27 01:00 010 19 7.0
2015-Jan-27 00:00 030 11 6.0
2015-Jan-26 23:00 040 10 6.0
2015-Jan-26 22:00 050 9 gusting 16 7.0
2015-Jan-26 21:00 030 3 7.0
2015-Jan-26 20:00 040 12 gusting 19 8.0
2015-Jan-26 19:00 050 10 gusting 16 8.0
2015-Jan-26 18:00 050 11 gusting 20 8.0
2015-Jan-26 17:00 060 9 gusting 15 8.0
2015-Jan-26 16:00 040 11 gusting 22 8.0
2015-Jan-26 15:00 070 6 8.0
2015-Jan-26 14:00 060 9 gusting 18 8.0
2015-Jan-26 13:00 090 5 8.0
2015-Jan-26 12:00 090 4 8.0
2015-Jan-26 11:00 030 4 8.0
2015-Jan-26 10:00 300 1 8.0
2015-Jan-26 09:00 210 4 8.0
2015-Jan-26 08:00 080 3 7.0
2015-Jan-26 07:00 080 2 8.0
2015-Jan-26 06:00 060 3 8.0
2015-Jan-26 05:00 140 1 7.0
2015-Jan-26 04:00 120 3 7.0
2015-Jan-26 03:00 110 5 8.0
2015-Jan-26 02:00 330 4 8.0
2015-Jan-26 01:00 270 3 8.0
2015-Jan-26 00:00 170 3 8.0
2015-Jan-25 23:00 200 3 8.0
2015-Jan-25 22:00 210 5 8.0
2015-Jan-25 21:00 220 11 8.0
2015-Jan-25 20:00 210 10 9.0
2015-Jan-25 19:00 210 9 9.0
2015-Jan-25 18:00 230 10 8.0
2015-Jan-25 17:00 220 7 8.0
2015-Jan-25 16:00 240 6 8.0
2015-Jan-25 15:00 230 11 8.0
2015-Jan-25 14:00 260 13 8.0
2015-Jan-25 13:00 240 13 8.0
2015-Jan-25 12:00 240 13 9.0
2015-Jan-25 11:00 220 13 8.0
2015-Jan-25 10:00 230 9 9.0
2015-Jan-25 09:00 250 12 9.0
2015-Jan-25 08:00 240 16 10.0
2015-Jan-25 07:00 240 17 gusting 24 10.0
2015-Jan-25 06:00 250 20 gusting 27 10.0
2015-Jan-25 05:00 240 25 gusting 32 10.0
2015-Jan-25 04:00 230 26 gusting 33 10.0
2015-Jan-25 03:00 230 27 gusting 38 10.0